| time (UTC) | temp F | wind direction | speed MPH | gust MPH | rain 1hr in | rain 24hr in | rain mn in | humidity % | barometer mb |
| 20260904050510 | 68 | 109 | 2.0 | 14.0 | 0.00 | 0.16 | 0.00 | 90 | 1010.1 |
| 20260904050024 | 68 | 170 | 2.0 | 10.0 | 0.00 | 0.16 | 0.00 | 90 | 1010.1 |
| 20260904045508 | 68 | 184 | 3.0 | 14.0 | 0.00 | 0.19 | 0.00 | 90 | 1010.3 |
| 20260904045007 | 68 | 183 | 2.0 | 14.0 | 0.00 | 0.19 | 0.00 | 90 | 1010.5 |
| 20260904044515 | 68 | 118 | 2.0 | 8.0 | 0.00 | 0.19 | 0.00 | 90 | 1010.6 |
| 20260904044005 | 68 | 123 | 1.0 | 9.0 | 0.00 | 0.19 | 0.00 | 90 | 1010.8 |
| 20260904043504 | 68 | 100 | 1.0 | 10.0 | 0.00 | 0.19 | 0.00 | 90 | 1010.9 |
| 20260904043004 | 68 | 107 | 2.0 | 13.0 | 0.00 | 0.19 | 0.00 | 90 | 1010.9 |
| 20260904042503 | 68 | 90 | 4.0 | 13.0 | 0.00 | 0.19 | 0.00 | 90 | 1011.1 |
| 20260904042003 | 68 | 180 | 3.0 | 7.0 | 0.00 | 0.19 | 0.00 | 90 | 1011.1 |
| 20260904041503 | 68 | 159 | 2.0 | 7.0 | 0.00 | 0.19 | 0.00 | 90 | 1011.0 |
| 20260904041002 | 68 | 102 | 2.0 | 9.0 | 0.00 | 0.19 | 0.00 | 90 | 1011.0 |
| 20260904040502 | 68 | 246 | 3.0 | 9.0 | 0.00 | 0.19 | 0.00 | 90 | 1011.1 |
| 20260904040002 | 68 | 202 | 3.0 | 8.0 | 0.00 | 0.19 | 0.00 | 90 | 1011.1 |
| 20260904035601 | 68 | 236 | 2.0 | 8.0 | 0.00 | 0.19 | 0.00 | 90 | 1011.2 |
| 20260904035100 | 68 | 218 | 2.0 | 8.0 | 0.00 | 0.19 | 0.00 | 90 | 1011.4 |
| 20260904034600 | 68 | 154 | 3.0 | 12.0 | 0.00 | 0.19 | 0.00 | 90 | 1011.4 |
| 20260904034102 | 68 | 76 | 2.0 | 12.0 | 0.00 | 0.19 | 0.00 | 90 | 1011.3 |
| 20260904033559 | 68 | 201 | 2.0 | 9.0 | 0.00 | 0.19 | 0.00 | 90 | 1011.4 |
| 20260904033105 | 68 | 140 | 3.0 | 9.0 | 0.00 | 0.19 | 0.00 | 90 | 1011.6 |
| 20260904032556 | 68 | 46 | 1.0 | 8.0 | 0.00 | 0.19 | 0.00 | 90 | 1011.6 |
| 20260904032101 | 68 | 163 | 2.0 | 8.0 | 0.00 | 0.19 | 0.00 | 90 | 1011.6 |
| 20260904031557 | 68 | 165 | 2.0 | 8.0 | 0.00 | 0.19 | 0.00 | 90 | 1011.7 |
| 20260904031057 | 68 | 244 | 2.0 | 9.0 | 0.00 | 0.19 | 0.00 | 90 | 1011.7 |
| 20260904030558 | 68 | 167 | 2.0 | 9.0 | 0.00 | 0.19 | 0.00 | 90 | 1011.6 |
| 20260904030056 | 68 | 189 | 1.0 | 10.0 | 0.00 | 0.19 | 0.00 | 90 | 1011.7 |
| 20260904025556 | 68 | 192 | 3.0 | 10.0 | 0.00 | 0.19 | 0.00 | 90 | 1011.7 |
| 20260904025055 | 68 | 98 | 2.0 | 10.0 | 0.00 | 0.19 | 0.00 | 91 | 1011.8 |
| 20260904024611 | 68 | 175 | 3.0 | 10.0 | 0.00 | 0.19 | 0.00 | 91 | 1011.8 |
| 20260904024055 | 68 | 215 | 2.0 | 9.0 | 0.00 | 0.19 | 0.00 | 91 | 1011.8 |
| 20260904023553 | 68 | 211 | 2.0 | 8.0 | 0.00 | 0.19 | 0.00 | 91 | 1011.9 |
| 20260904023100 | 68 | 267 | 2.0 | 5.0 | 0.00 | 0.19 | 0.00 | 91 | 1011.9 |
| 20260904022550 | 68 | 195 | 2.0 | 11.0 | 0.00 | 0.19 | 0.00 | 91 | 1012.1 |
| 20260904022049 | 68 | 159 | 3.0 | 11.0 | 0.00 | 0.19 | 0.00 | 91 | 1012.0 |
| 20260904021549 | 68 | 101 | 2.0 | 8.0 | 0.00 | 0.19 | 0.00 | 91 | 1012.2 |
| 20260904021049 | 68 | 258 | 3.0 | 8.0 | 0.00 | 0.19 | 0.00 | 91 | 1012.1 |
| 20260904020551 | 68 | 193 | 3.0 | 7.0 | 0.00 | 0.19 | 0.00 | 91 | 1012.3 |
| 20260904020049 | 68 | 184 | 2.0 | 8.0 | 0.00 | 0.19 | 0.00 | 91 | 1012.4 |
| 20260904015546 | 68 | 240 | 2.0 | 9.0 | 0.00 | 0.19 | 0.00 | 91 | 1012.5 |
| 20260904015046 | 68 | 246 | 2.0 | 9.0 | 0.00 | 0.19 | 0.00 | 91 | 1012.5 |
| 20260904014550 | 68 | 126 | 2.0 | 6.0 | 0.00 | 0.19 | 0.00 | 92 | 1012.6 |
| 20260904014045 | 68 | 224 | 2.0 | 8.0 | 0.00 | 0.19 | 0.00 | 92 | 1012.7 |
| 20260904013544 | 68 | 228 | 2.0 | 7.0 | 0.00 | 0.19 | 0.00 | 92 | 1012.7 |
| 20260904013045 | 68 | 190 | 2.0 | 6.0 | 0.00 | 0.19 | 0.00 | 92 | 1012.8 |
| 20260904012544 | 68 | 70 | 2.0 | 10.0 | 0.00 | 0.19 | 0.00 | 92 | 1012.9 |
| 20260904012043 | 68 | 40 | 3.0 | 10.0 | 0.00 | 0.19 | 0.00 | 92 | 1012.9 |
| 20260904011543 | 68 | 304 | 2.0 | 7.0 | 0.00 | 0.19 | 0.00 | 92 | 1013.0 |
| 20260904011041 | 68 | 134 | 2.0 | 8.0 | 0.00 | 0.19 | 0.00 | 92 | 1013.1 |
| 20260904010540 | 68 | 213 | 1.0 | 5.0 | 0.00 | 0.19 | 0.00 | 92 | 1013.1 |
| 20260904010040 | 68 | 229 | 1.0 | 8.0 | 0.00 | 0.19 | 0.00 | 92 | 1013.2 |
| 20260904005539 | 68 | 180 | 2.0 | 8.0 | 0.00 | 0.19 | 0.00 | 92 | 1013.2 |
| 20260904005038 | 68 | 165 | 1.0 | 9.0 | 0.00 | 0.19 | 0.00 | 92 | 1013.3 |
| 20260904004539 | 68 | 206 | 2.0 | 9.0 | 0.00 | 0.19 | 0.00 | 92 | 1013.3 |
| 20260904004037 | 68 | 169 | 2.0 | 6.0 | 0.00 | 0.19 | 0.00 | 92 | 1013.5 |
| 20260904003537 | 68 | 211 | 2.0 | 7.0 | 0.00 | 0.19 | 0.00 | 92 | 1013.5 |
| 20260904003039 | 68 | 184 | 2.0 | 7.0 | 0.00 | 0.19 | 0.00 | 92 | 1013.6 |
| 20260904002536 | 68 | 117 | 1.0 | 6.0 | 0.00 | 0.19 | 0.00 | 92 | 1013.6 |
| 20260904002036 | 68 | 259 | 1.0 | 8.0 | 0.00 | 0.19 | 0.00 | 92 | 1013.7 |
| 20260904001535 | 68 | 159 | 2.0 | 8.0 | 0.00 | 0.19 | 0.00 | 92 | 1013.7 |
| 20260904001037 | 68 | 49 | 2.0 | 7.0 | 0.00 | 0.19 | 0.00 | 92 | 1013.6 |
| 20260904000536 | 68 | 108 | 1.0 | 7.0 | 0.00 | 0.19 | 0.00 | 92 | 1013.7 |
| 20260904000048 | 68 | 195 | 2.0 | 5.0 | 0.00 | 0.19 | 0.00 | 92 | 1013.7 |
| 20260903235534 | 68 | 240 | 2.0 | 5.0 | 0.00 | 0.19 | 0.00 | 92 | 1013.7 |
| 20260903235033 | 68 | 91 | 1.0 | 5.0 | 0.00 | 0.19 | 0.00 | 92 | 1013.6 |
| 20260903234533 | 68 | 144 | 1.0 | 9.0 | 0.00 | 0.19 | 0.00 | 92 | 1013.8 |
| 20260903234035 | 68 | 146 | 2.0 | 9.0 | 0.00 | 0.19 | 0.00 | 92 | 1013.8 |
| 20260903233535 | 68 | 100 | 1.0 | 6.0 | 0.00 | 0.19 | 0.00 | 92 | 1013.8 |
| 20260903233037 | 68 | 236 | 2.0 | 6.0 | 0.00 | 0.19 | 0.00 | 92 | 1013.8 |
| 20260903232530 | 68 | 78 | 1.0 | 5.0 | 0.00 | 0.19 | 0.00 | 92 | 1014.0 |
| 20260903232030 | 68 | 186 | 1.0 | 7.0 | 0.00 | 0.19 | 0.00 | 92 | 1014.0 |
| 20260903231530 | 68 | 109 | 2.0 | 7.0 | 0.00 | 0.19 | 0.00 | 92 | 1014.0 |
| 20260903231028 | 68 | 109 | 1.0 | 6.0 | 0.00 | 0.19 | 0.00 | 92 | 1014.1 |
| 20260903230527 | 68 | 79 | 1.0 | 9.0 | 0.00 | 0.19 | 0.00 | 92 | 1014.3 |
| 20260903230027 | 68 | 171 | 3.0 | 9.0 | 0.00 | 0.19 | 0.00 | 92 | 1014.5 |
| 20260903225526 | 68 | 136 | 2.0 | 9.0 | 0.00 | 0.19 | 0.00 | 93 | 1014.5 |
| 20260903225025 | 68 | 214 | 1.0 | 9.0 | 0.00 | 0.19 | 0.00 | 93 | 1014.6 |
| 20260903224537 | 68 | 151 | 0.0 | 5.0 | 0.00 | 0.19 | 0.00 | 93 | 1014.7 |
| 20260903224025 | 68 | 132 | 1.0 | 5.0 | 0.00 | 0.19 | 0.00 | 93 | 1014.6 |
| 20260903223531 | 68 | 158 | 1.0 | 5.0 | 0.00 | 0.19 | 0.00 | 93 | 1014.7 |
| 20260903223031 | 68 | 105 | 2.0 | 6.0 | 0.00 | 0.19 | 0.00 | 93 | 1014.7 |
| 20260903222524 | 68 | 101 | 1.0 | 6.0 | 0.00 | 0.19 | 0.00 | 93 | 1014.6 |
| 20260903222023 | 68 | 211 | 1.0 | 5.0 | 0.00 | 0.19 | 0.00 | 93 | 1014.8 |
| 20260903221522 | 68 | 41 | 0.0 | 5.0 | 0.00 | 0.19 | 0.00 | 93 | 1014.9 |
| 20260903221021 | 68 | 129 | 1.0 | 9.0 | 0.00 | 0.19 | 0.00 | 93 | 1015.1 |
| 20260903220520 | 67 | 327 | 1.0 | 9.0 | 0.00 | 0.19 | 0.00 | 93 | 1014.9 |
| 20260903220020 | 67 | 206 | 2.0 | 7.0 | 0.00 | 0.19 | 0.00 | 94 | 1015.0 |
| 20260903215520 | 67 | 177 | 2.0 | 7.0 | 0.00 | 0.19 | 0.19 | 94 | 1015.1 |
| 20260903215020 | 67 | 129 | 1.0 | 4.0 | 0.00 | 0.19 | 0.19 | 94 | 1015.0 |
| 20260903214519 | 67 | 255 | 0.0 | 6.0 | 0.00 | 0.19 | 0.19 | 94 | 1015.1 |
| 20260903214021 | 67 | 236 | 0.0 | 6.0 | 0.00 | 0.19 | 0.19 | 94 | 1015.1 |
| 20260903213519 | 67 | 159 | 2.0 | 6.0 | 0.00 | 0.19 | 0.19 | 94 | 1015.1 |
| 20260903213037 | 67 | 115 | 1.0 | 3.0 | 0.00 | 0.19 | 0.19 | 94 | 1015.3 |
| 20260903212518 | 67 | 202 | 0.0 | 6.0 | 0.00 | 0.19 | 0.19 | 94 | 1015.4 |
| 20260903212018 | 67 | 214 | 1.0 | 7.0 | 0.00 | 0.19 | 0.19 | 94 | 1015.4 |
| 20260903211518 | 67 | 225 | 2.0 | 7.0 | 0.00 | 0.19 | 0.19 | 94 | 1015.4 |
| 20260903211018 | 67 | 209 | 1.0 | 4.0 | 0.00 | 0.19 | 0.19 | 94 | 1015.5 |
| 20260903210518 | 67 | 111 | 1.0 | 8.0 | 0.00 | 0.19 | 0.19 | 94 | 1015.5 |
| 20260903210018 | 67 | 163 | 1.0 | 8.0 | 0.00 | 0.19 | 0.19 | 94 | 1015.6 |
| 20260903205517 | 67 | 236 | 1.0 | 4.0 | 0.00 | 0.19 | 0.19 | 94 | 1015.5 |
| 20260903205019 | 67 | 165 | 1.0 | 5.0 | 0.00 | 0.19 | 0.19 | 94 | 1015.5 |
| 20260903204517 | 67 | 169 | 2.0 | 6.0 | 0.00 | 0.19 | 0.19 | 94 | 1015.5 |
| 20260903204017 | 67 | 251 | 1.0 | 5.0 | 0.00 | 0.19 | 0.19 | 94 | 1015.6 |
| 20260903203516 | 67 | 195 | 0.0 | 5.0 | 0.00 | 0.19 | 0.19 | 94 | 1015.8 |
| 20260903203026 | 67 | 296 | 0.0 | 4.0 | 0.00 | 0.19 | 0.19 | 94 | 1015.9 |
| 20260903202519 | 67 | 161 | 1.0 | 3.0 | 0.00 | 0.19 | 0.19 | 94 | 1015.9 |
| 20260903202016 | 67 | 47 | 0.0 | 3.0 | 0.00 | 0.19 | 0.19 | 94 | 1015.8 |
| 20260903201515 | 67 | 104 | 1.0 | 8.0 | 0.00 | 0.19 | 0.19 | 94 | 1015.9 |
| 20260903201015 | 67 | 74 | 2.0 | 8.0 | 0.00 | 0.19 | 0.19 | 94 | 1015.9 |
| 20260903200515 | 67 | 173 | 1.0 | 4.0 | 0.01 | 0.19 | 0.19 | 94 | 1015.9 |
| 20260903200016 | 67 | 142 | 0.0 | 4.0 | 0.02 | 0.19 | 0.19 | 94 | 1015.7 |
| 20260903195514 | 67 | 159 | 1.0 | 4.0 | 0.02 | 0.19 | 0.19 | 94 | 1015.8 |
| 20260903195015 | 67 | 196 | 1.0 | 5.0 | 0.02 | 0.19 | 0.19 | 93 | 1015.9 |
| 20260903194531 | 68 | 227 | 0.0 | 4.0 | 0.02 | 0.19 | 0.19 | 93 | 1016.0 |
| 20260903194014 | 68 | 350 | 0.0 | 1.0 | 0.02 | 0.19 | 0.19 | 93 | 1016.2 |
| 20260903193514 | 68 | 350 | 0.0 | 1.0 | 0.02 | 0.19 | 0.19 | 93 | 1016.2 |
| 20260903193017 | 68 | 350 | 0.0 | 3.0 | 0.02 | 0.19 | 0.19 | 93 | 1016.2 |
| 20260903192513 | 68 | 94 | 0.0 | 6.0 | 0.02 | 0.19 | 0.19 | 93 | 1016.2 |
| 20260903192013 | 68 | 319 | 1.0 | 4.0 | 0.02 | 0.19 | 0.19 | 93 | 1016.2 |
| 20260903191513 | 68 | 315 | 0.0 | 5.0 | 0.02 | 0.19 | 0.19 | 92 | 1016.2 |
| 20260903191013 | 68 | 319 | 1.0 | 8.0 | 0.02 | 0.19 | 0.19 | 92 | 1016.2 |
| 20260903190512 | 68 | 318 | 1.0 | 8.0 | 0.02 | 0.18 | 0.18 | 91 | 1016.2 |
| 20260903190013 | 68 | 247 | 0.0 | 3.0 | 0.01 | 0.17 | 0.17 | 91 | 1016.1 |
| 20260903185512 | 68 | 239 | 1.0 | 5.0 | 0.00 | 0.19 | 0.17 | 90 | 1016.1 |
| 20260903185012 | 68 | 246 | 1.0 | 5.0 | 0.00 | 0.19 | 0.17 | 90 | 1016.2 |
| 20260903184512 | 68 | 139 | 0.0 | 9.0 | 0.00 | 0.19 | 0.17 | 90 | 1016.2 |
| 20260903184015 | 69 | 338 | 2.0 | 9.0 | 0.00 | 0.19 | 0.17 | 90 | 1016.3 |
| 20260903183512 | 69 | 315 | 1.0 | 4.0 | 0.00 | 0.19 | 0.17 | 89 | 1016.2 |
| 20260903183011 | 69 | 151 | 1.0 | 4.0 | 0.00 | 0.19 | 0.17 | 89 | 1016.3 |
| 20260903182511 | 69 | 250 | 0.0 | 7.0 | 0.00 | 0.19 | 0.17 | 89 | 1016.2 |
| 20260903182010 | 69 | 283 | 2.0 | 8.0 | 0.00 | 0.19 | 0.17 | 89 | 1016.3 |
| 20260903181511 | 69 | 273 | 2.0 | 8.0 | 0.00 | 0.19 | 0.17 | 89 | 1016.4 |
| 20260903181013 | 69 | 229 | 1.0 | 8.0 | 0.00 | 0.19 | 0.17 | 88 | 1016.4 |
| 20260903180510 | 69 | 178 | 1.0 | 4.0 | 0.00 | 0.19 | 0.17 | 87 | 1016.3 |
| 20260903180010 | 69 | 231 | 0.0 | 5.0 | 0.00 | 0.19 | 0.17 | 87 | 1016.4 |
| 20260903175511 | 69 | 298 | 1.0 | 5.0 | 0.00 | 0.19 | 0.17 | 87 | 1016.3 |
| 20260903175009 | 69 | 240 | 0.0 | 5.0 | 0.00 | 0.19 | 0.17 | 86 | 1016.3 |
| 20260903174509 | 70 | 243 | 1.0 | 9.0 | 0.00 | 0.19 | 0.17 | 86 | 1016.3 |
| 20260903174009 | 70 | 347 | 1.0 | 9.0 | 0.00 | 0.19 | 0.17 | 86 | 1016.4 |
| 20260903173508 | 70 | 169 | 1.0 | 4.0 | 0.00 | 0.19 | 0.17 | 85 | 1016.3 |
| 20260903173008 | 70 | 324 | 1.0 | 8.0 | 0.00 | 0.19 | 0.17 | 85 | 1016.4 |
| 20260903172508 | 70 | 5 | 0.0 | 10.0 | 0.00 | 0.19 | 0.17 | 85 | 1016.5 |
| 20260903172010 | 70 | 256 | 0.0 | 13.0 | 0.00 | 0.19 | 0.17 | 85 | 1016.6 |
| 20260903171507 | 70 | 92 | 3.0 | 13.0 | 0.00 | 0.19 | 0.17 | 85 | 1016.6 |
| 20260903171007 | 70 | 199 | 0.0 | 8.0 | 0.00 | 0.19 | 0.17 | 85 | 1016.5 |
| 20260903170507 | 70 | 312 | 2.0 | 8.0 | 0.00 | 0.19 | 0.17 | 85 | 1016.5 |
| 20260903170011 | 70 | 80 | 2.0 | 9.0 | 0.00 | 0.19 | 0.17 | 85 | 1016.4 |
| 20260903165507 | 70 | 315 | 2.0 | 9.0 | 0.00 | 0.19 | 0.17 | 84 | 1016.3 |
| 20260903165006 | 70 | 167 | 1.0 | 10.0 | 0.00 | 0.19 | 0.17 | 84 | 1016.2 |
| 20260903164506 | 70 | 317 | 1.0 | 10.0 | 0.00 | 0.19 | 0.17 | 84 | 1016.2 |
| 20260903164007 | 70 | 196 | 1.0 | 6.0 | 0.00 | 0.19 | 0.17 | 84 | 1016.2 |
| 20260903163508 | 70 | 211 | 1.0 | 9.0 | 0.00 | 0.19 | 0.17 | 84 | 1016.3 |
| 20260903163010 | 71 | 355 | 1.0 | 9.0 | 0.00 | 0.19 | 0.17 | 83 | 1016.5 |
| 20260903162507 | 71 | 146 | 1.0 | 12.0 | 0.00 | 0.19 | 0.17 | 83 | 1016.4 |
| 20260903162005 | 71 | 317 | 4.0 | 10.0 | 0.00 | 0.19 | 0.17 | 82 | 1016.6 |
| 20260903161514 | 71 | 76 | 2.0 | 10.0 | 0.00 | 0.19 | 0.17 | 82 | 1016.6 |
| 20260903161005 | 71 | 327 | 2.0 | 8.0 | 0.00 | 0.19 | 0.17 | 81 | 1016.6 |
| 20260903160505 | 71 | 213 | 1.0 | 9.0 | 0.00 | 0.19 | 0.17 | 81 | 1016.5 |
| 20260903160004 | 71 | 257 | 0.0 | 8.0 | 0.00 | 0.19 | 0.17 | 81 | 1016.4 |
| 20260903155503 | 71 | 156 | 2.0 | 13.0 | 0.00 | 0.19 | 0.17 | 80 | 1016.4 |
| 20260903155004 | 71 | 35 | 2.0 | 8.0 | 0.00 | 0.19 | 0.17 | 80 | 1016.3 |
| 20260903154503 | 71 | 323 | 2.0 | 9.0 | 0.00 | 0.19 | 0.17 | 80 | 1016.3 |
| 20260903154003 | 71 | 348 | 2.0 | 11.0 | 0.00 | 0.19 | 0.17 | 80 | 1016.4 |
| 20260903153503 | 71 | 286 | 2.0 | 11.0 | 0.00 | 0.19 | 0.17 | 80 | 1016.5 |
| 20260903153004 | 71 | 109 | 1.0 | 8.0 | 0.00 | 0.19 | 0.17 | 81 | 1016.5 |
| 20260903152503 | 71 | 360 | 2.0 | 13.0 | 0.00 | 0.19 | 0.17 | 81 | 1016.5 |
| 20260903152005 | 71 | 241 | 3.0 | 13.0 | 0.00 | 0.19 | 0.17 | 81 | 1016.4 |
| 20260903151502 | 71 | 317 | 3.0 | 14.0 | 0.00 | 0.19 | 0.17 | 81 | 1016.5 |
| 20260903151002 | 72 | 297 | 2.0 | 14.0 | 0.00 | 0.19 | 0.17 | 80 | 1016.6 |
| 20260903150502 | 72 | 113 | 4.0 | 14.0 | 0.00 | 0.19 | 0.17 | 81 | 1016.6 |
| 20260903150003 | 72 | 225 | 4.0 | 15.0 | 0.00 | 0.19 | 0.17 | 81 | 1016.6 |
| 20260903145501 | 72 | 323 | 3.0 | 15.0 | 0.00 | 0.19 | 0.17 | 81 | 1016.6 |
| 20260903145102 | 72 | 252 | 2.0 | 13.0 | 0.00 | 0.19 | 0.17 | 81 | 1016.5 |
| 20260903144600 | 72 | 340 | 4.0 | 13.0 | 0.00 | 0.19 | 0.17 | 81 | 1016.5 |
| 20260903144102 | 71 | 284 | 2.0 | 10.0 | 0.00 | 0.19 | 0.17 | 82 | 1016.4 |
| 20260903143559 | 71 | 229 | 2.0 | 8.0 | 0.00 | 0.19 | 0.17 | 82 | 1016.4 |
| 20260903143107 | 71 | 178 | 2.0 | 14.0 | 0.00 | 0.19 | 0.17 | 82 | 1016.5 |
| 20260903142559 | 71 | 317 | 4.0 | 14.0 | 0.00 | 0.19 | 0.17 | 81 | 1016.5 |
| 20260903142059 | 71 | 238 | 4.0 | 16.0 | 0.00 | 0.19 | 0.17 | 81 | 1016.5 |
| 20260903141610 | 71 | 56 | 3.0 | 10.0 | 0.00 | 0.19 | 0.17 | 82 | 1016.6 |
| 20260903141058 | 71 | 261 | 4.0 | 10.0 | 0.00 | 0.19 | 0.17 | 82 | 1016.6 |
| 20260903140557 | 71 | 298 | 3.0 | 14.0 | 0.00 | 0.19 | 0.17 | 82 | 1016.6 |
| 20260903140101 | 71 | 329 | 5.0 | 14.0 | 0.00 | 0.19 | 0.17 | 83 | 1016.6 |
| 20260903135556 | 71 | 322 | 3.0 | 13.0 | 0.00 | 0.19 | 0.17 | 83 | 1016.5 |
| 20260903135056 | 71 | 88 | 2.0 | 15.0 | 0.00 | 0.19 | 0.17 | 83 | 1016.6 |
| 20260903134559 | 71 | 295 | 3.0 | 15.0 | 0.00 | 0.19 | 0.17 | 83 | 1016.6 |
| 20260903134055 | 70 | 279 | 3.0 | 12.0 | 0.00 | 0.19 | 0.17 | 83 | 1016.5 |
| 20260903133555 | 70 | 323 | 4.0 | 12.0 | 0.00 | 0.19 | 0.17 | 83 | 1016.5 |
| 20260903133055 | 70 | 133 | 3.0 | 10.0 | 0.00 | 0.19 | 0.17 | 83 | 1016.4 |
| 20260903132556 | 70 | 210 | 2.0 | 12.0 | 0.00 | 0.19 | 0.17 | 83 | 1016.4 |
| 20260903132059 | 70 | 321 | 3.0 | 13.0 | 0.00 | 0.19 | 0.17 | 84 | 1016.4 |
| 20260903131607 | 70 | 151 | 3.0 | 13.0 | 0.00 | 0.19 | 0.17 | 84 | 1016.3 |
| 20260903131054 | 70 | 157 | 2.0 | 12.0 | 0.00 | 0.19 | 0.17 | 84 | 1016.4 |
| 20260903130554 | 70 | 342 | 3.0 | 19.0 | 0.00 | 0.19 | 0.17 | 85 | 1016.4 |
| 20260903130056 | 70 | 213 | 7.0 | 19.0 | 0.00 | 0.19 | 0.17 | 84 | 1016.5 |
| 20260903125554 | 70 | 360 | 3.0 | 19.0 | 0.00 | 0.19 | 0.17 | 84 | 1016.4 |
| 20260903125056 | 70 | 232 | 2.0 | 13.0 | 0.00 | 0.19 | 0.17 | 84 | 1016.3 |
| 20260903124553 | 70 | 30 | 2.0 | 10.0 | 0.00 | 0.19 | 0.17 | 83 | 1016.3 |
| 20260903124052 | 70 | 309 | 5.0 | 13.0 | 0.00 | 0.19 | 0.17 | 81 | 1016.2 |
| 20260903123614 | 71 | 327 | 3.0 | 14.0 | 0.00 | 0.19 | 0.17 | 81 | 1016.1 |
| 20260903123059 | 71 | 311 | 7.0 | 14.0 | 0.00 | 0.19 | 0.17 | 81 | 1016.2 |
| 20260903122553 | 71 | 154 | 3.0 | 22.0 | 0.00 | 0.19 | 0.17 | 81 | 1016.2 |
| 20260903122051 | 71 | 334 | 5.0 | 22.0 | 0.00 | 0.19 | 0.17 | 81 | 1016.2 |
| 20260903121614 | 71 | 304 | 4.0 | 17.0 | 0.00 | 0.19 | 0.17 | 81 | 1016.2 |
| 20260903121052 | 70 | 281 | 8.0 | 17.0 | 0.00 | 0.19 | 0.17 | 81 | 1016.3 |
| 20260903120553 | 70 | 304 | 5.0 | 17.0 | 0.00 | 0.19 | 0.17 | 80 | 1016.2 |
| 20260903120050 | 70 | 355 | 8.0 | 17.0 | 0.00 | 0.19 | 0.17 | 81 | 1016.3 |
| 20260903115549 | 70 | 347 | 5.0 | 17.0 | 0.00 | 0.19 | 0.17 | 82 | 1016.2 |
| 20260903115048 | 70 | 121 | 4.0 | 18.0 | 0.00 | 0.19 | 0.17 | 83 | 1016.1 |
| 20260903114550 | 70 | 267 | 6.0 | 20.0 | 0.00 | 0.19 | 0.17 | 82 | 1016.1 |
| 20260903114048 | 70 | 238 | 5.0 | 16.0 | 0.00 | 0.19 | 0.17 | 82 | 1016.0 |
| 20260903113548 | 70 | 320 | 6.0 | 16.0 | 0.00 | 0.19 | 0.17 | 82 | 1016.0 |
| 20260903113049 | 70 | 355 | 5.0 | 15.0 | 0.00 | 0.19 | 0.17 | 82 | 1015.8 |
| 20260903112548 | 70 | 340 | 5.0 | 18.0 | 0.00 | 0.19 | 0.17 | 82 | 1015.7 |
| 20260903112046 | 70 | 325 | 6.0 | 18.0 | 0.00 | 0.19 | 0.17 | 83 | 1015.8 |
| 20260903111548 | 70 | 323 | 7.0 | 15.0 | 0.00 | 0.19 | 0.17 | 82 | 1015.8 |
| 20260903111047 | 70 | 5 | 4.0 | 11.0 | 0.00 | 0.19 | 0.17 | 83 | 1015.8 |
| 20260903110549 | 70 | 344 | 6.0 | 15.0 | 0.00 | 0.19 | 0.17 | 83 | 1015.9 |
| 20260903110045 | 70 | 150 | 3.0 | 20.0 | 0.00 | 0.19 | 0.17 | 84 | 1015.9 |
| 20260903105545 | 70 | 251 | 5.0 | 20.0 | 0.00 | 0.19 | 0.17 | 83 | 1015.8 |
| 20260903105045 | 70 | 338 | 4.0 | 16.0 | 0.00 | 0.19 | 0.17 | 84 | 1015.8 |
| 20260903104554 | 70 | 348 | 7.0 | 16.0 | 0.00 | 0.19 | 0.17 | 83 | 1015.8 |
| 20260903104045 | 70 | 312 | 6.0 | 16.0 | 0.00 | 0.19 | 0.17 | 84 | 1015.8 |
| 20260903103544 | 70 | 340 | 4.0 | 16.0 | 0.00 | 0.19 | 0.17 | 85 | 1015.7 |
| 20260903103044 | 70 | 322 | 6.0 | 16.0 | 0.00 | 0.19 | 0.17 | 84 | 1015.8 |
| 20260903102545 | 70 | 315 | 5.0 | 13.0 | 0.00 | 0.19 | 0.17 | 85 | 1015.7 |
| 20260903102042 | 70 | 88 | 5.0 | 20.0 | 0.00 | 0.19 | 0.17 | 85 | 1015.8 |
| 20260903101549 | 70 | 327 | 5.0 | 20.0 | 0.00 | 0.19 | 0.17 | 86 | 1015.7 |
| 20260903101042 | 70 | 346 | 3.0 | 15.0 | 0.00 | 0.19 | 0.17 | 87 | 1015.7 |
| 20260903100542 | 69 | 99 | 4.0 | 14.0 | 0.00 | 0.19 | 0.17 | 86 | 1015.7 |
| 20260903100045 | 70 | 341 | 4.0 | 16.0 | 0.00 | 0.19 | 0.17 | 86 | 1015.7 |
| 20260903095541 | 70 | 192 | 3.0 | 15.0 | 0.00 | 0.19 | 0.17 | 86 | 1015.7 |
| 20260903095044 | 69 | 325 | 2.0 | 15.0 | 0.00 | 0.19 | 0.17 | 86 | 1015.6 |
| 20260903094541 | 69 | 296 | 4.0 | 16.0 | 0.00 | 0.19 | 0.17 | 86 | 1015.6 |
| 20260903094042 | 70 | 349 | 5.0 | 13.0 | 0.00 | 0.19 | 0.17 | 86 | 1015.8 |
| 20260903093541 | 69 | 304 | 6.0 | 18.0 | 0.00 | 0.19 | 0.17 | 86 | 1015.6 |
| 20260903093042 | 69 | 289 | 4.0 | 18.0 | 0.00 | 0.19 | 0.17 | 87 | 1015.5 |
| 20260903092540 | 69 | 339 | 4.0 | 15.0 | 0.00 | 0.19 | 0.17 | 87 | 1015.3 |
| 20260903092039 | 69 | 216 | 2.0 | 10.0 | 0.00 | 0.19 | 0.17 | 89 | 1015.3 |
| 20260903091550 | 69 | 355 | 2.0 | 12.0 | 0.00 | 0.19 | 0.17 | 90 | 1015.3 |
| 20260903091036 | 68 | 64 | 3.0 | 12.0 | 0.00 | 0.19 | 0.17 | 90 | 1015.3 |
| 20260903090535 | 68 | 351 | 3.0 | 15.0 | 0.00 | 0.19 | 0.17 | 91 | 1015.3 |
| 20260903090034 | 68 | 196 | 2.0 | 15.0 | 0.00 | 0.19 | 0.17 | 92 | 1015.4 |
| 20260903085535 | 68 | 329 | 3.0 | 8.0 | 0.00 | 0.19 | 0.17 | 93 | 1015.5 |
| 20260903085032 | 67 | 300 | 1.0 | 6.0 | 0.00 | 0.19 | 0.17 | 94 | 1015.2 |
| 20260903084531 | 67 | 229 | 2.0 | 10.0 | 0.00 | 0.19 | 0.17 | 94 | 1015.2 |
| 20260903084033 | 67 | 18 | 2.0 | 12.0 | 0.00 | 0.19 | 0.17 | 95 | 1015.1 |
| 20260903083531 | 67 | 46 | 3.0 | 10.0 | 0.00 | 0.19 | 0.17 | 95 | 1015.1 |
| 20260903083030 | 66 | 30 | 3.0 | 17.0 | 0.00 | 0.19 | 0.17 | 96 | 1015.0 |
| 20260903082529 | 66 | 207 | 2.0 | 11.0 | 0.00 | 0.19 | 0.17 | 96 | 1015.0 |
| 20260903082028 | 66 | 244 | 3.0 | 11.0 | 0.00 | 0.19 | 0.17 | 97 | 1015.0 |
| 20260903081532 | 66 | 63 | 2.0 | 10.0 | 0.00 | 0.19 | 0.17 | 97 | 1015.0 |
| 20260903081029 | 66 | 276 | 2.0 | 10.0 | 0.01 | 0.19 | 0.17 | 97 | 1014.9 |
| 20260903080532 | 66 | 324 | 1.0 | 5.0 | 0.01 | 0.19 | 0.17 | 97 | 1014.8 |
| 20260903080026 | 66 | 61 | 1.0 | 5.0 | 0.02 | 0.19 | 0.17 | 97 | 1014.8 |
| 20260903075528 | 66 | 170 | 2.0 | 5.0 | 0.04 | 0.19 | 0.17 | 97 | 1015.0 |
| 20260903075028 | 66 | 355 | 1.0 | 7.0 | 0.06 | 0.19 | 0.17 | 97 | 1014.9 |
| 20260903074528 | 66 | 194 | 1.0 | 5.0 | 0.06 | 0.19 | 0.17 | 97 | 1015.0 |
| 20260903074023 | 66 | 137 | 1.0 | 6.0 | 0.06 | 0.19 | 0.17 | 97 | 1014.9 |
| 20260903073525 | 66 | 344 | 2.0 | 6.0 | 0.06 | 0.19 | 0.17 | 97 | 1015.0 |
| 20260903073024 | 66 | 244 | 1.0 | 5.0 | 0.07 | 0.19 | 0.17 | 97 | 1014.9 |
| 20260903072522 | 66 | 242 | 1.0 | 5.0 | 0.08 | 0.19 | 0.17 | 97 | 1014.8 |
| 20260903072142 | 66 | 197 | 2.0 | 6.0 | 0.09 | 0.19 | 0.17 | 97 | 1014.9 |
| 20260903071521 | 65 | 246 | 1.0 | 4.0 | 0.09 | 0.19 | 0.17 | 97 | 1014.9 |
| 20260903071020 | 65 | 5 | 1.0 | 8.0 | 0.08 | 0.18 | 0.16 | 97 | 1014.9 |
| 20260903070519 | 65 | 324 | 2.0 | 8.0 | 0.09 | 0.18 | 0.16 | 97 | 1015.0 |
| 20260903070019 | 65 | 325 | 2.0 | 10.0 | 0.08 | 0.17 | 0.15 | 97 | 1015.1 |
| 20260903065519 | 65 | 5 | 3.0 | 16.0 | 0.06 | 0.14 | 0.12 | 97 | 1015.2 |
| 20260903065018 | 65 | 311 | 3.0 | 16.0 | 0.05 | 0.13 | 0.11 | 97 | 1015.2 |
| 20260903064518 | 65 | 319 | 1.0 | 16.0 | 0.05 | 0.13 | 0.11 | 97 | 1015.0 |
| 20260903064018 | 65 | 288 | 2.0 | 7.0 | 0.04 | 0.13 | 0.10 | 97 | 1015.0 |
| 20260903063517 | 65 | 301 | 2.0 | 9.0 | 0.04 | 0.13 | 0.10 | 97 | 1014.9 |
| 20260903063115 | 65 | 344 | 2.0 | 9.0 | 0.04 | 0.12 | 0.09 | 97 | 1015.0 |
| 20260903062515 | 65 | 263 | 3.0 | 9.0 | 0.04 | 0.11 | 0.09 | 96 | 1014.9 |
| 20260903062015 | 65 | 209 | 2.0 | 9.0 | 0.03 | 0.10 | 0.08 | 96 | 1015.0 |
| 20260903061518 | 65 | 72 | 2.0 | 9.0 | 0.04 | 0.10 | 0.08 | 96 | 1014.7 |
| 20260903061017 | 65 | 208 | 2.0 | 7.0 | 0.05 | 0.10 | 0.08 | 96 | 1014.7 |
| 20260903060513 | 65 | 345 | 1.0 | 5.0 | 0.04 | 0.09 | 0.07 | 96 | 1014.7 |
| 20260903060015 | 65 | 338 | 1.0 | 5.0 | 0.04 | 0.09 | 0.07 | 96 | 1014.8 |
| 20260903055512 | 65 | 121 | 1.0 | 4.0 | 0.04 | 0.09 | 0.06 | 96 | 1014.8 |
| 20260903055012 | 65 | 296 | 0.0 | 6.0 | 0.06 | 0.09 | 0.06 | 96 | 1014.7 |
| 20260903054513 | 65 | 185 | 1.0 | 6.0 | 0.06 | 0.09 | 0.06 | 96 | 1014.7 |
| 20260903054012 | 65 | 215 | 1.0 | 4.0 | 0.06 | 0.09 | 0.06 | 96 | 1014.7 |
| 20260903053510 | 65 | 210 | 1.0 | 5.0 | 0.06 | 0.08 | 0.06 | 96 | 1014.8 |
| 20260903053013 | 65 | 242 | 0.0 | 5.0 | 0.06 | 0.08 | 0.06 | 95 | 1014.7 |
| 20260903052509 | 65 | 270 | 1.0 | 3.0 | 0.05 | 0.07 | 0.05 | 95 | 1014.9 |
| 20260903052009 | 65 | 234 | 0.0 | 4.0 | 0.05 | 0.07 | 0.05 | 95 | 1014.8 |
| 20260903051509 | 65 | 168 | 1.0 | 4.0 | 0.04 | 0.06 | 0.04 | 95 | 1014.9 |
| 20260903051008 | 65 | 221 | 1.0 | 5.0 | 0.03 | 0.06 | 0.03 | 95 | 1014.9 |